Location: Les Jeannots
(43.2262°N, 5.5774°E)
Time: 08:13:59
(UTC+00:00)

Resurs 01 Rocket - Pass Details

Date: 05 July 2020
Orbit: 634 x 644 km, 98.0° (Epoch: 05 August)

Event Time Altitude Azimuth Distance (km) Brightness Sun altitude
Exits shadow 20:45:40 - 191° (S) 2,456 4.3 -12.6°
Reaches altitude 10° 20:46:48 10° 196° (SSW) 2,021 3.9 -12.7°
Maximum altitude 20:50:51 35° 263° (W) 1,024 3.0 -13.2°
Drops below altitude 10° 20:54:55 10° 330° (NNW) 2,031 5.6 -13.7°
Sets 20:57:17 0° 339° (NNW) 2,944 6.6 -14.0°
